Location: Recife
(8.0585°S, 34.8848°W)
Time: 13:59:42
(UTC-03:00)

Vanguard 2 - Pass Details

Date: 14 April 2026
Orbit: 553 x 2895 km, 32.9° (Epoch: 13 May)

Event Time Altitude Azimuth Distance (km) Brightness Sun altitude
Exits shadow 03:44:04 13° 218° (SW) 4,861 11.2 -24.8°
Maximum altitude 03:54:08 29° 168° (SSE) 3,128 10.6 -22.3°
Drops below altitude 10° 04:02:15 10° 112° (ESE) 3,588 11.8 -20.3°
Sets 04:05:17 0° 100° (E) 4,241 12.7 -19.6°
